Location: Unspecified
(50.7693°N, 0.0000°E)
Time: 22:41:23
(UTC+00:00)

Vanguard 1 Rocket - Pass Details

Date: 28 June 2019
Orbit: 651 x 4225 km, 34.3° (Epoch: 18 July)

Event Time Altitude Azimuth Distance (km) Brightness Sun altitude
Rises 12:38:19 0° 191° (SSW) 8,450 12.7 61.7°
Reaches altitude 10° 12:47:22 10° 177° (S) 7,352 12.6 61.2°
Maximum altitude 13:01:18 19° 142° (SE) 5,997 12.0 60.3°
Drops below altitude 10° 13:12:27 10° 106° (ESE) 5,838 11.5 59.4°
Sets 13:18:05 0° 91° (E) 6,256 11.5 58.9°
